DW6169 Weather Reports


Display with metric or nautical units.
time (UTC)temp
F
wind
direction
speed
MPH
gust
MPH
rain 1hr
in
rain 24hr
in
rain mn
in
humidity
%
barometer
mb
20260504040558 75 0 0.0 3.0 0.00 0.78 0.00 87 1015.5
20260504040108 75 0 0.0 3.0 0.00 0.78 0.00 87 1015.6
20260504035558 74 0 0.0 5.0 0.00 0.78 0.78 87 1015.6
20260504035101 75 22 1.0 6.0 0.00 0.78 0.78 87 1015.6
20260504034600 74 0 0.0 6.0 0.00 0.78 0.78 87 1015.6
20260504034059 74 0 1.0 5.0 0.00 0.78 0.78 87 1015.7
20260504033556 74 80 1.0 6.0 0.00 0.78 0.78 87 1015.7
20260504033058 74 0 2.0 6.0 0.00 0.78 0.78 87 1015.7
20260504032559 74 60 0.0 4.0 0.00 0.78 0.78 87 1015.9
20260504032103 74 0 0.0 4.0 0.00 0.78 0.78 87 1015.9
20260504031623 74 0 0.0 4.0 0.00 0.78 0.78 88 1015.7
20260504031100 74 0 0.0 3.0 0.00 0.78 0.78 88 1015.8
20260504030559 74 0 0.0 4.0 0.00 0.78 0.78 88 1015.8
20260504030100 74 0 0.0 4.0 0.00 0.78 0.78 87 1015.9
20260504025559 74 352 1.0 4.0 0.00 0.78 0.78 88 1015.9
20260504025057 74 59 0.0 0.0 0.00 0.78 0.78 88 1015.8
20260504024601 74 0 0.0 4.0 0.00 0.78 0.78 88 1015.8
20260504024059 74 0 0.0 5.0 0.00 0.78 0.78 88 1015.8
20260504023558 74 0 0.0 5.0 0.00 0.78 0.78 88 1015.7
20260504023059 74 34 1.0 5.0 0.00 0.78 0.78 88 1015.7
20260504022559 74 9 1.0 6.0 0.00 0.78 0.78 88 1015.7
20260504022101 74 11 2.0 7.0 0.00 0.78 0.78 88 1015.7
20260504021609 74 360 1.0 7.0 0.00 0.78 0.78 88 1015.6
20260504021101 74 0 0.0 4.0 0.00 0.78 0.78 88 1015.7
20260504020601 74 0 0.0 4.0 0.00 0.78 0.78 88 1015.7
20260504020107 74 0 1.0 4.0 0.00 0.78 0.78 88 1015.7
20260504015600 74 0 0.0 4.0 0.00 0.78 0.78 88 1015.7
20260504015059 74 0 1.0 4.0 0.00 0.78 0.78 88 1015.6
20260504014601 74 350 0.0 2.0 0.00 0.78 0.78 88 1015.6
20260504014059 74 0 0.0 3.0 0.00 0.78 0.78 88 1015.5
20260504013557 74 0 0.0 4.0 0.00 0.78 0.78 87 1015.6
20260504013105 74 9 1.0 4.0 0.00 0.78 0.78 87 1015.6
20260504012559 74 352 1.0 4.0 0.00 0.78 0.78 87 1015.6
20260504012059 74 0 0.0 0.0 0.00 0.78 0.78 87 1015.5
20260504011600 74 0 0.0 0.0 0.00 0.78 0.78 87 1015.4
20260504011100 74 0 0.0 3.0 0.00 0.78 0.78 87 1015.6
20260504010556 74 0 0.0 3.0 0.00 0.78 0.78 87 1015.6
20260504010120 74 28 0.0 3.0 0.01 0.78 0.78 87 1015.6
20260504005559 74 0 0.0 3.0 0.05 0.78 0.78 87 1015.6
20260504005057 74 0 1.0 4.0 0.08 0.78 0.78 87 1015.6
20260504004558 74 352 1.0 4.0 0.08 0.78 0.78 87 1015.4
20260504004056 75 5 1.0 4.0 0.08 0.78 0.78 86 1015.3
20260504003558 75 0 0.0 0.0 0.08 0.78 0.78 86 1015.2
20260504003058 75 0 0.0 0.0 0.08 0.78 0.78 86 1015.3
20260504002557 75 0 0.0 1.0 0.08 0.78 0.78 86 1015.3
20260504002101 75 0 0.0 3.0 0.08 0.78 0.78 85 1015.3
20260504001611 75 0 0.0 3.0 0.08 0.78 0.78 85 1015.4
20260504001100 75 0 0.0 5.0 0.08 0.78 0.78 85 1015.4
20260504000557 75 5 1.0 8.0 0.08 0.78 0.78 85 1015.3
20260504000106 75 0 1.0 10.0 0.07 0.77 0.77 85 1015.3
20260503235557 76 319 2.0 10.0 0.03 0.73 0.73 85 1015.2
20260503235056 75 25 3.0 10.0 0.00 0.70 0.70 85 1014.9
20260503234557 75 70 3.0 9.0 0.00 0.70 0.70 84 1014.7
20260503234057 75 21 3.0 11.0 0.00 0.70 0.70 84 1014.6
20260503233558 76 53 4.0 11.0 0.00 0.70 0.70 85 1014.6
20260503233059 76 76 2.0 7.0 0.00 0.70 0.70 85 1014.6
20260503232557 76 80 3.0 11.0 0.00 0.70 0.70 85 1014.8
20260503232101 76 0 2.0 11.0 0.00 0.70 0.70 84 1014.9
20260503231557 76 56 4.0 9.0 0.00 0.70 0.70 85 1014.6
20260503231059 76 88 1.0 7.0 0.02 0.70 0.70 85 1014.5
20260503230559 76 53 3.0 8.0 0.02 0.70 0.70 85 1014.5
20260503230059 76 77 2.0 9.0 0.02 0.70 0.70 84 1014.3
20260503225559 76 26 3.0 9.0 0.02 0.70 0.70 84 1014.2
20260503225102 77 23 3.0 9.0 0.02 0.70 0.70 84 1014.2
20260503224559 77 0 2.0 7.0 0.02 0.70 0.70 84 1014.3
20260503224057 77 60 2.0 7.0 0.02 0.70 0.70 84 1014.3
20260503223558 77 65 1.0 5.0 0.02 0.70 0.70 83 1014.4
20260503223059 77 17 1.0 5.0 0.02 0.70 0.70 83 1014.3
20260503222556 77 71 0.0 6.0 0.02 0.70 0.70 82 1014.1
20260503222057 77 32 2.0 9.0 0.02 0.70 0.70 82 1014.3
20260503221557 77 323 4.0 9.0 0.02 0.70 0.70 81 1014.3
20260503221059 78 33 4.0 10.0 0.00 0.68 0.68 81 1014.4
20260503220559 78 5 3.0 10.0 0.00 0.68 0.68 81 1014.3
20260503220104 78 53 4.0 9.0 0.00 0.68 0.68 81 1014.4
20260503215559 78 67 2.0 9.0 0.00 0.68 0.68 81 1014.4
20260503215056 78 51 3.0 8.0 0.00 0.68 0.68 81 1014.4
20260503214559 78 68 3.0 8.0 0.00 0.68 0.68 80 1014.4
20260503214059 78 352 3.0 8.0 0.00 0.68 0.68 80 1014.4
20260503213600 78 58 3.0 8.0 0.00 0.68 0.68 80 1014.4
20260503213133 78 76 3.0 8.0 0.00 0.68 0.68 80 1014.4
20260503212601 78 53 2.0 9.0 0.00 0.68 0.68 80 1014.5
20260503212101 78 60 3.0 9.0 0.00 0.68 0.68 80 1014.5
20260503211621 78 351 4.0 9.0 0.00 0.68 0.68 80 1014.5
20260503211057 78 62 2.0 6.0 0.00 0.68 0.68 80 1014.6
20260503210559 78 122 2.0 6.0 0.00 0.68 0.68 80 1014.7
20260503210100 78 107 2.0 7.0 0.00 0.68 0.68 79 1014.9
20260503205557 78 38 1.0 7.0 0.00 0.68 0.68 79 1014.8
20260503205102 78 82 1.0 6.0 0.00 0.68 0.68 79 1014.7
20260503204621 78 20 1.0 10.0 0.00 0.68 0.68 78 1014.8
20260503204057 78 0 3.0 10.0 0.00 0.68 0.68 78 1014.8
20260503203602 78 52 4.0 10.0 0.00 0.68 0.68 77 1014.8
20260503203115 78 88 3.0 10.0 0.00 0.68 0.68 77 1014.6
20260503202558 79 22 2.0 9.0 0.00 0.68 0.68 77 1014.7
20260503202100 79 78 3.0 9.0 0.00 0.68 0.68 77 1014.8
20260503201559 79 5 3.0 9.0 0.00 0.68 0.68 76 1014.8
20260503201102 79 132 3.0 9.0 0.00 0.68 0.68 77 1014.7
20260503200601 79 352 2.0 9.0 0.00 0.68 0.68 77 1014.7
20260503200057 79 88 3.0 8.0 0.00 0.68 0.68 77 1014.8
20260503195600 79 63 3.0 7.0 0.00 0.68 0.68 77 1014.7
20260503195059 79 117 3.0 9.0 0.00 0.68 0.68 77 1014.9
20260503194558 79 47 2.0 9.0 0.00 0.68 0.68 77 1015.0
20260503194100 79 82 3.0 9.0 0.00 0.68 0.68 76 1015.2
20260503193602 79 5 3.0 11.0 0.00 0.68 0.68 76 1015.1
20260503193059 80 94 3.0 11.0 0.00 0.68 0.68 76 1015.2
20260503192557 80 15 4.0 11.0 0.00 0.68 0.68 76 1015.2
20260503192059 80 65 3.0 9.0 0.00 0.68 0.68 77 1015.2
20260503191605 79 281 5.0 11.0 0.00 0.68 0.68 76 1015.3
20260503191100 80 46 3.0 11.0 0.00 0.68 0.68 77 1015.3
20260503190601 79 5 3.0 9.0 0.00 0.68 0.68 78 1015.5
20260503190101 79 94 1.0 9.0 0.00 0.68 0.68 79 1015.5
20260503185601 79 63 2.0 9.0 0.00 0.68 0.68 78 1015.6
20260503185057 79 71 3.0 9.0 0.00 0.68 0.68 78 1015.6
20260503184630 78 121 3.0 9.0 0.00 0.68 0.68 78 1015.7
20260503184057 78 84 3.0 8.0 0.00 0.68 0.68 78 1015.9
20260503183558 78 39 3.0 9.0 0.00 0.68 0.68 78 1016.1
20260503183107 78 0 3.0 9.0 0.00 0.68 0.68 78 1016.2
20260503182557 78 70 5.0 12.0 0.00 0.68 0.68 78 1016.3
20260503182059 78 86 5.0 12.0 0.00 0.68 0.68 78 1016.3
20260503181600 78 350 4.0 12.0 0.00 0.68 0.68 79 1016.3
20260503181057 78 40 4.0 10.0 0.00 0.68 0.68 79 1016.2
20260503180558 79 49 3.0 10.0 0.00 0.68 0.68 79 1016.2
20260503180100 79 332 3.0 10.0 0.00 0.68 0.68 78 1016.4
20260503175557 79 74 2.0 9.0 0.00 0.68 0.68 78 1016.5
20260503175057 79 17 2.0 9.0 0.00 0.68 0.68 77 1016.5
20260503174618 79 56 4.0 9.0 0.00 0.68 0.68 76 1016.6
20260503174059 79 53 3.0 10.0 0.00 0.68 0.68 77 1016.6
20260503173557 79 121 3.0 10.0 0.00 0.68 0.68 77 1016.6
20260503173132 79 42 3.0 10.0 0.00 0.68 0.68 77 1016.8
20260503172559 79 117 2.0 8.0 0.00 0.68 0.68 77 1016.9
20260503172100 79 117 4.0 9.0 0.00 0.68 0.68 77 1016.7
20260503171600 79 30 4.0 9.0 0.00 0.68 0.68 77 1016.8
20260503171057 79 360 3.0 8.0 0.00 0.68 0.68 76 1016.7
20260503170558 79 44 2.0 8.0 0.00 0.68 0.68 76 1016.7
20260503150557 75 340 1.0 8.0 0.00 0.68 0.68 87 1016.9
20260503131057 72 0 0.0 0.0 0.11 0.67 0.67 87 1016.5
20260503130557 72 0 0.0 0.0 0.11 0.67 0.67 87 1016.6
20260503110557 74 0 0.0 3.0 0.05 0.05 0.05 80 1014.5
20260503100108 75 0 0.0 3.0 0.00 0.00 0.00 75 1014.2
20260503090105 76 0 0.0 5.0 0.00 0.00 0.00 77 1014.4
20260503081601 78 234 0.0 4.0 0.00 0.00 0.00 79 1014.2
20260503081100 78 0 0.0 3.0 0.00 0.00 0.00 79 1014.1
20260503080605 78 0 0.0 3.0 0.00 0.00 0.00 79 1014.1
20260503072600 78 0 1.0 4.0 0.00 0.00 0.00 79 1013.2
20260503072102 78 0 0.0 0.0 0.00 0.00 0.00 79 1013.0
20260503071614 78 0 0.0 0.0 0.00 0.00 0.00 79 1012.9
20260503071100 78 0 0.0 0.0 0.00 0.00 0.00 79 1012.7
20260503070559 78 0 0.0 2.0 0.00 0.00 0.00 79 1012.8
20260503070115 78 0 0.0 2.0 0.00 0.00 0.00 79 1012.8
20260503060127 79 0 1.0 4.0 0.00 0.00 0.00 78 1014.0
20260503055059 79 0 0.0 7.0 0.00 0.00 0.00 78 1014.1
20260503054609 79 221 2.0 6.0 0.00 0.00 0.00 78 1014.3
20260503054100 79 232 0.0 5.0 0.00 0.00 0.00 78 1014.4
20260503053558 79 248 1.0 5.0 0.00 0.00 0.00 78 1014.6
20260503053106 79 255 1.0 4.0 0.00 0.00 0.00 78 1014.7
20260503052600 79 234 1.0 5.0 0.00 0.00 0.00 78 1014.8
20260503052100 79 254 0.0 5.0 0.00 0.00 0.00 77 1014.9
20260503051600 79 237 1.0 5.0 0.00 0.00 0.00 77 1015.0
20260503051100 79 267 1.0 6.0 0.00 0.00 0.00 77 1015.0
20260503050603 79 257 1.0 6.0 0.00 0.00 0.00 77 1015.1
20260503050103 79 258 1.0 6.0 0.00 0.00 0.00 77 1015.1
20260503045559 79 295 2.0 6.0 0.00 0.00 0.00 76 1015.1
20260503045058 79 259 1.0 6.0 0.00 0.00 0.00 76 1015.0
20260503044558 79 266 1.0 5.0 0.00 0.00 0.00 76 1015.0
20260503044057 80 230 2.0 5.0 0.00 0.00 0.00 76 1015.0
20260503043557 80 244 0.0 3.0 0.00 0.00 0.00 75 1015.0
20260503043059 80 0 0.0 5.0 0.00 0.00 0.00 75 1015.0
20260503042557 80 253 1.0 6.0 0.00 0.00 0.00 75 1015.0
20260503042057 80 252 1.0 6.0 0.00 0.00 0.00 75 1015.0
20260503041558 80 273 1.0 7.0 0.00 0.00 0.00 74 1014.9
20260503041058 80 265 3.0 7.0 0.00 0.00 0.00 74 1015.0